Location: Keppel Henge
(44.7900°N, 80.9447°W)
Time: 01:37:37
(UTC-04:00)

Vanguard 3 - All Passes

Search period start: 19 October 2017 00:00
Search period end: 29 October 2017 00:00
Orbit: 510 x 3263 km, 33.3° (Epoch: 18 October)

Date Brightness Start Highest point End Pass type
(mag) Time Alt. Az. Time Alt. Az. Time Alt. Az.
19 Oct - 02:50:49 10° SSE 02:54:55 11° SSE 02:58:35 10° SE visible
19 Oct - 04:57:24 10° SSW 05:08:09 26° SSE 05:15:23 10° ESE visible
19 Oct - 07:11:02 10° WSW 07:20:40 35° S 07:26:33 10° ESE visible
19 Oct - 09:25:58 10° WSW 09:31:59 25° SSW 09:36:06 10° SE daylight
20 Oct - 03:43:01 10° SSW 03:53:35 21° SSE 04:01:20 10° ESE visible
20 Oct - 05:55:12 10° SW 06:06:40 35° S 06:13:45 10° ESE visible
20 Oct - 08:10:09 10° WSW 08:18:43 34° S 08:24:00 10° SE daylight
20 Oct - 10:25:48 10° WSW 10:29:21 15° SSW 10:32:12 10° S daylight
21 Oct - 02:30:16 10° S 02:38:46 16° SSE 02:45:46 10° ESE visible
21 Oct - 04:39:37 10° SW 04:52:15 31° SSE 05:00:31 10° ESE visible
21 Oct - 06:54:04 10° WSW 07:05:01 39° S 07:11:32 10° ESE visible
21 Oct - 09:09:37 10° WSW 09:16:25 26° SSW 09:20:57 10° SE daylight
22 Oct - 03:24:43 10° SSW 03:37:29 26° SSE 03:46:36 10° ESE visible
22 Oct - 05:37:52 10° SW 05:50:50 39° S 05:58:42 10° ESE visible
22 Oct - 07:53:27 10° WSW 08:03:05 36° SSW 08:08:55 10° SE daylight
22 Oct - 10:09:48 10° WSW 10:13:43 15° SW 10:16:48 10° S daylight
23 Oct - 02:11:09 10° S 02:22:29 20° SSE 02:31:32 10° ESE visible
23 Oct - 04:21:55 10° SW 04:36:13 36° SSE 04:45:27 10° ESE visible
23 Oct - 06:37:02 10° WSW 06:49:15 42° S 06:56:26 10° ESE visible
23 Oct - 08:53:11 10° WSW 09:00:46 27° SSW 09:05:45 10° SSE daylight
24 Oct - 01:00:28 10° SSE 01:07:28 13° SE 01:13:47 10° ESE visible
24 Oct - 03:06:41 10° SSW 03:21:14 31° SSE 03:31:35 10° E visible
24 Oct - 05:20:33 10° WSW 05:34:54 44° S 05:43:33 10° ESE visible
24 Oct - 07:36:40 10° WSW 07:47:22 38° SSW 07:53:45 10° SE daylight
24 Oct - 09:53:43 10° WSW 09:57:59 15° SW 10:01:19 10° S daylight
25 Oct - 01:52:38 10° SSW 02:06:04 24° SSE 02:16:43 10° ESE visible
25 Oct - 04:04:21 10° SW 04:20:03 41° SSE 04:30:15 10° E visible
25 Oct - 06:19:58 10° WSW 06:33:22 45° S 06:41:15 10° ESE visible
25 Oct - 08:36:38 10° W 08:45:02 28° SSW 08:50:28 10° SSE daylight
26 Oct - 00:40:40 10° S 00:50:54 17° SE 00:59:59 10° ESE visible
26 Oct - 02:48:52 10° SSW 03:04:51 36° SSE 03:16:20 10° E visible
26 Oct - 05:03:15 10° WSW 05:18:50 47° S 05:28:20 10° ESE visible
26 Oct - 07:19:48 10° W 07:31:32 39° SSW 07:38:32 10° SE visible
26 Oct - 09:37:34 10° WSW 09:42:10 15° SW 09:45:45 10° S daylight
27 Oct - 01:34:30 10° SSW 01:49:30 29° SSE 02:01:33 10° E visible
27 Oct - 03:46:53 10° SW 04:03:46 45° SSE 04:14:56 10° E visible
27 Oct - 06:02:52 10° WSW 06:17:24 47° S 06:26:00 10° ESE visible
27 Oct - 08:19:59 10° W 08:29:10 28° SSW 08:35:07 10° SSE daylight
28 Oct - 00:21:54 10° S 00:34:13 20° SE 00:45:15 10° ESE visible
28 Oct - 02:31:15 10° SW 02:48:20 40° SSE 03:00:56 10° E visible
28 Oct - 04:45:59 10° WSW 05:02:38 50° S 05:12:59 10° ESE visible
28 Oct - 07:02:52 10° W 07:15:35 40° SSW 07:23:13 10° SE visible
28 Oct - 09:21:21 10° WSW 09:26:14 15° SW 09:30:04 10° SSW daylight
28 Oct - 23:13:19 10° SSE 23:19:14 12° SE 23:25:01 10° ESE night (unlit)
